Regional Weather Roundup
Issued by NWS Burlington, VT

Home | Current Version | Previous Version | Text Only | Print | Product List | Glossary On
Versions: 1 2 3 4 5 6 7 8 9 10 11 12 13 14 15 16 17 18 19 20 21 22 23 24 25 26 27 28 29 30 31 32 33 34 35 36 37 38 39 40 41 42 43 44 45 46 47 48 49 50
000
ASUS41 KBTV 171930
RWRBTV
VERMONT REGIONAL WEATHER ROUNDUP
NATIONAL WEATHER SERVICE BURLINGTON VT
300 PM EDT THU APR 17 2014

NOTE: "FAIR" INDICATES FEW OR NO CLOUDS BELOW 12,000 FEET WITH NO
SIGNIFICANT WEATHER AND/OR OBSTRUCTIONS TO VISIBILITY.

* THESE REPORTS ARE NOT UNDER NWS QUALITY CONTROL AND/OR DO NOT
  REPORT WEATHER SUCH AS PRECIPITATION AND FOG.

VTZ001>019-172000-
_____VERMONT_____


CITY           SKY/WX    TMP DP  RH WIND       PRES   REMARKS
BURLINGTON     PTCLDY    44  19  36 NW7       30.68F
MONTPELIER     PTCLDY    42  13  30 SE10      30.70F
MORRISVILLE    PTCLDY    45  13  27 SE7       30.68F
ST. JOHNSBURY*   N/A     44  15  31 MISG      30.67F
LYNDONVILLE*   FAIR      44  13  29 S6        30.68F
MIDDLEBURY*    FAIR      44  19  36 SW3       30.66F
RUTLAND*       MOCLDY    43  16  33 SE10      30.66F
SPRINGFIELD    PTCLDY    46  14  27 SE9       30.69F
HIGHGATE*      FAIR      48  22  35 NW3       30.68F
NEWPORT*       FAIR      44  12  27 E6        30.67F
BENNINGTON     PTCLDY    48  15  26 SE9       30.63F
MT. MANSFIELD*   N/A     30 N/A N/A SE20        N/A  WCI  18

_____LAKE CHAMPLAIN_____


CITY           SKY/WX    TMP DP  RH WIND       PRES   REMARKS
BURTON ISLAND*   N/A     39  27  60 S5          N/A
COLCHESTER RF*   N/A     39  25  56 SW12        N/A
DIAMOND ISL*     N/A     41  19  42 S7          N/A

$$

NYZ007-026>031-035-052-083-172000-
_____NORTHERN NEW YORK_____


CITY           SKY/WX    TMP DP  RH WIND       PRES   REMARKS
PLATTSBURGH    PTCLDY    44  18  35 SE14      30.68F
SARANAC LAKE   CLEAR     45  14  28 S9        30.55F
MASSENA        CLEAR     48  20  32 NE9       30.63F
OGDENSBURG*    CLEAR     54  19  26 SE6       30.57F
POTSDAM*       CLEAR     52  19  28 S6        30.58F
WATERTOWN      CLEAR     52  17  25 S8        30.55F
FT DRUM        CLEAR     49  15  26 SE14G23   30.54F
ALBANY         MOCLDY    50  14  23 SE7       30.66F
GLENS FALLS    MOCLDY    45  19  35 CALM      30.67F

$$
NHZ002-005-011-172000-
_____NEW HAMPSHIRE_____


CITY           SKY/WX    TMP DP  RH WIND       PRES   REMARKS
LEBANON        PTCLDY    44  11  26 VRB6      30.69F
KEENE          CLEAR     46  18  31 S5        30.69F
MT WASHINGTON  MOCLDY    25  -4  28 S12         N/A  WCI  14
PLYMOUTH         N/A     43  12  28 E8        30.71F
WHITEFIELD     PTCLDY    44  19  36 W3        30.67F

$$

_____REGIONAL QUEBEC LOCATIONS_____


CITY           SKY/WX    TMP DP  RH WIND       PRES   REMARKS
MONTREAL       MOCLDY    43  19  39 E14       30.69F
QUEBEC CITY    MOCLDY    39  14  35 CALM      30.76F
SHERBROOKE     CLEAR     41  18  38 SE6       30.69F

_____REGIONAL ONTARIO LOCATIONS_____


CITY           SKY/WX    TMP DP  RH WIND       PRES   REMARKS
OTTAWA         MOCLDY    46  18  31 SE14G24   30.60F

______KEY______
VSB  - VISIBILITY IN MILES
WCI  - WIND CHILL INDEX
HX   - HEAT INDEX
$$
NNNN


USA.gov is the U.S. government's official web portal to all federal, state and local government web resources and services.